Weather in Mukanay

Russia / Mari El Republic     56°26′34″N   49°30′13″E
temp.,
°C
wind,
m/s
gust,
m/s
humid.,
%
clouds,
%
prec.,
mm/h
press.,
hPa
HPBL,
m
28 july, wed
wed2800:00+10nne11790 0.0 101712
03:00+9nne22824 0.0 101723
06:00+13n12675 0.0 1017131
09:00+18n23435 0.0 10171476
12:00+21nw45363 0.0 10152046
15:00+22nw45365 0.0 10152043
18:00+20nw24512 0.0 1014123
21:00+14sw22605 0.0 101411
29 july, thu
thu2900:00+12sw236575 0.0 101340
03:00+11sw366886 0.0 101290
06:00+15sw3106375 0.0 1011259
09:00+21sw5952100 0.0 1009529
12:00+25sw6850100 0.0 10081644
15:00+18ssw5886100 1.0 1008654
18:00+16s4998100 1.0 1006602
21:00+16s379882 1.0 1005351
30 july, fri
fri3000:00+15ssw139999 0.0 1003176
03:00+15w259994 0.0 1003228
06:00+16w369569 0.0 1004304
09:00+21w477141 0.0 1004880
12:00+26w474639 0.0 10042043
15:00+24wsw2459100 0.0 1004111
18:00+22wsw2268100 0.0 100425
21:00+19wsw3680100 0.1 100598
31 july, sat
sat3100:00+17wsw3997100 1.3 1006327
03:00+17sw249699 1.3 100599
06:00+17ssw139897 0.3 1005111
09:00+19ssw2595100 0.4 1004435
12:00+23wsw467682 0.4 1003973
15:00+23w587180 1.7 10041155
18:00+21w3379100 1.0 100453
21:00+17wsw39856 1.0 1006155
1 august, sun
sun100:00+15sw39855 0.0 1006144
03:00+15wsw3886100 0.0 1007151
06:00+17w397960 0.0 1008333
09:00+22wnw475044 0.0 10101054
12:00+25w36409 0.0 10101767
15:00+27wsw453717 0.0 10092192
18:00+24ssw37548 0.0 1009286
21:00+19s39730 0.0 1009166